Location: Atherton
(17.2661°S, 145.4859°E)
Time: 06:52:17
(UTC+10:00)

A-11 Canister half - Visible Passes

Search period start: 19 May 2026 00:00
Search period end: 29 May 2026 00:00
Orbit: 1515 x 1684 km, 47.2° (Epoch: 17 May)

Date Brightness Start Highest point End Pass type
(mag) Time Alt. Az. Time Alt. Az. Time Alt. Az.
19 May 11.2 05:02:23 10° N 05:09:18 23° NE 05:16:21 10° ESE visible
20 May 11.2 04:39:51 10° N 04:46:17 20° NE 04:52:50 10° E visible
21 May 11.3 04:17:24 10° NNE 04:23:17 18° NE 04:29:15 10° E visible
22 May 11.3 03:55:03 10° NNE 04:00:16 16° NE 04:05:33 10° E visible
22 May 9.2 05:54:58 10° NW 06:04:28 85° NE 06:14:23 10° SE visible
23 May 11.3 03:32:51 10° NNE 03:37:15 14° NE 03:41:42 10° E visible
23 May 9.2 05:32:00 10° NW 05:41:26 79° NE 05:51:17 10° SE visible
24 May 11.3 03:10:55 10° NNE 03:14:15 12° NE 03:17:36 10° ENE visible
24 May 9.2 05:09:01 10° NNW 05:18:24 73° NE 05:28:11 10° SE visible
25 May 11.3 02:49:45 10° NE 02:51:14 10° NE 02:52:43 10° ENE visible
25 May 9.3 04:46:06 10° NNW 04:55:22 68° NE 05:05:03 10° SE visible
26 May 9.3 04:23:10 10° NNW 04:32:22 62° NE 04:41:55 10° SE visible
27 May 9.4 04:01:59 17° NNW 04:09:21 57° NE 04:18:45 10° SE visible
27 May 9.5 06:05:54 10° WNW 06:14:26 37° SW 06:23:20 10° SSE visible
28 May 9.5 03:43:17 40° N 03:46:20 52° NE 03:55:36 10° SE visible
28 May 9.4 05:42:39 10° WNW 05:51:19 39° SW 06:00:21 10° SSE visible
